Time,TemperatureF,DewpointF,PressureIn,WindDirection,WindDirectionDegrees,WindSpeedMPH,WindSpeedGustMPH,Humidity,HourlyPrecipIn,Conditions,Clouds,dailyrainin,SolarRadiationWatts/m^2,SoftwareType,DateUTC
2013-07-12 00:01:00,63.8,56.8,30.03,WNW,298,0.0,0.0,78,0.00,CLR,,0.00,0.0,WeatherDisplay:10.37,2013-07-12 04:01:00,
2013-07-12 00:06:00,63.7,56.7,30.04,WNW,298,0.0,0.0,78,0.00,CLR,,0.00,0.0,WeatherDisplay:10.37,2013-07-12 04:06:00,
2013-07-12 00:11:00,63.5,56.9,30.04,WNW,298,0.1,1.2,79,0.00,CLR,,0.00,0.0,WeatherDisplay:10.37,2013-07-12 04:11:00,
2013-07-12 00:16:00,63.4,56.8,30.04,WNW,300,0.2,1.0,79,0.00,CLR,,0.00,0.0,WeatherDisplay:10.37,2013-07-12 04:16:00,
2013-07-12 00:21:00,63.2,56.9,30.04,WNW,300,0.0,0.0,80,0.00,CLR,,0.00,0.0,WeatherDisplay:10.37,2013-07-12 04:21:00,
2013-07-12 00:26:00,63.1,56.8,30.04,WNW,300,0.0,0.0,80,0.00,CLR,,0.00,0.0,WeatherDisplay:10.37,2013-07-12 04:26:00,
2013-07-12 00:31:00,63.1,56.8,30.04,WNW,300,0.0,0.0,80,0.00,CLR,,0.00,0.0,WeatherDisplay:10.37,2013-07-12 04:31:00,
2013-07-12 00:36:00,62.9,57.0,30.04,WNW,300,0.0,0.0,81,0.00,CLR,,0.00,0.0,WeatherDisplay:10.37,2013-07-12 04:36:00,
2013-07-12 00:41:00,62.8,56.9,30.04,WNW,300,0.0,0.0,81,0.00,CLR,,0.00,0.0,WeatherDisplay:10.37,2013-07-12 04:41:00,
2013-07-12 00:46:00,62.6,57.0,30.04,WNW,300,0.0,0.0,82,0.00,CLR,,0.00,0.0,WeatherDisplay:10.37,2013-07-12 04:46:00,
2013-07-12 00:51:00,62.4,56.8,30.04,WNW,300,0.0,0.0,82,0.00,CLR,,0.00,0.0,WeatherDisplay:10.37,2013-07-12 04:51:00,
2013-07-12 00:56:00,62.4,56.8,30.04,WNW,300,0.1,1.2,82,0.00,CLR,,0.00,0.0,WeatherDisplay:10.37,2013-07-12 04:56:00,
2013-07-12 01:01:00,62.3,56.7,30.04,WNW,300,0.2,1.2,82,0.00,CLR,,0.00,0.0,WeatherDisplay:10.37,2013-07-12 05:01:00,
2013-07-12 01:06:00,62.3,56.7,30.04,WNW,300,0.1,1.2,82,0.00,CLR,,0.00,0.0,WeatherDisplay:10.37,2013-07-12 05:06:00,
2013-07-12 01:12:00,62.2,56.6,30.05,WNW,300,0.0,1.2,82,0.00,CLR,,0.00,0.0,WeatherDisplay:10.37,2013-07-12 05:12:00,
2013-07-12 01:17:00,62.1,56.9,30.05,WNW,300,0.0,0.0,83,0.00,CLR,,0.00,0.0,WeatherDisplay:10.37,2013-07-12 05:17:00,
2013-07-12 01:22:00,62.0,56.8,30.05,WNW,300,0.0,0.0,83,0.00,CLR,,0.00,0.0,WeatherDisplay:10.37,2013-07-12 05:22:00,
2013-07-12 01:27:00,61.8,56.6,30.05,WNW,300,0.0,0.0,83,0.00,CLR,,0.00,0.0,WeatherDisplay:10.37,2013-07-12 05:27:00,
2013-07-12 01:32:00,61.7,56.5,30.05,WNW,300,0.0,0.0,83,0.00,CLR,,0.00,0.0,WeatherDisplay:10.37,2013-07-12 05:32:00,
2013-07-12 01:37:00,61.5,56.6,30.05,WNW,300,0.0,0.0,84,0.00,CLR,,0.00,0.0,WeatherDisplay:10.37,2013-07-12 05:37:00,
2013-07-12 01:42:00,61.4,56.5,30.05,WNW,300,0.0,0.0,84,0.00,CLR,,0.00,0.0,WeatherDisplay:10.37,2013-07-12 05:42:00,
2013-07-12 01:47:00,61.4,56.5,30.05,WNW,300,0.8,2.3,84,0.00,CLR,,0.00,0.0,WeatherDisplay:10.37,2013-07-12 05:47:00,
2013-07-12 01:52:00,61.2,56.7,30.05,WNW,300,0.0,1.2,85,0.00,CLR,,0.00,0.0,WeatherDisplay:10.37,2013-07-12 05:52:00,
2013-07-12 01:57:00,61.2,56.7,30.05,WNW,300,0.0,1.2,85,0.00,CLR,,0.00,0.0,WeatherDisplay:10.37,2013-07-12 05:57:00,
2013-07-12 02:02:00,61.1,56.6,30.05,WNW,300,0.0,0.0,85,0.00,CLR,,0.00,0.0,WeatherDisplay:10.37,2013-07-12 06:02:00,
2013-07-12 02:07:00,60.9,56.4,30.05,WNW,300,0.6,1.2,85,0.00,CLR,,0.00,0.0,WeatherDisplay:10.37,2013-07-12 06:07:00,
2013-07-12 02:12:00,60.7,56.5,30.05,WNW,300,0.0,0.0,86,0.00,CLR,,0.00,0.0,WeatherDisplay:10.37,2013-07-12 06:12:00,
2013-07-12 02:17:00,60.6,56.4,30.05,WNW,300,0.0,1.2,86,0.00,CLR,,0.00,0.0,WeatherDisplay:10.37,2013-07-12 06:17:00,
2013-07-12 02:22:00,60.5,56.6,30.05,WNW,300,0.1,1.2,87,0.00,CLR,,0.00,0.0,WeatherDisplay:10.37,2013-07-12 06:22:00,
2013-07-12 02:27:00,60.4,56.5,30.05,WNW,300,0.0,1.2,87,0.00,CLR,,0.00,0.0,WeatherDisplay:10.37,2013-07-12 06:27:00,
2013-07-12 02:32:00,60.3,56.4,30.05,NNE,14,0.5,2.3,87,0.00,CLR,,0.00,0.0,WeatherDisplay:10.37,2013-07-12 06:32:00,
2013-07-12 02:37:00,60.2,56.3,30.05,NNE,14,0.0,1.2,87,0.00,CLR,,0.00,0.0,WeatherDisplay:10.37,2013-07-12 06:37:00,
2013-07-12 02:42:00,60.2,56.6,30.05,NNE,14,0.5,2.3,88,0.00,CLR,,0.00,0.0,WeatherDisplay:10.37,2013-07-12 06:42:00,
2013-07-12 02:47:00,60.2,56.6,30.05,North,5,0.0,0.0,88,0.00,CLR,,0.00,0.0,WeatherDisplay:10.37,2013-07-12 06:47:00,
2013-07-12 02:52:00,60.2,56.6,30.05,North,5,0.0,0.0,88,0.00,CLR,,0.00,0.0,WeatherDisplay:10.37,2013-07-12 06:52:00,
2013-07-12 02:57:00,60.2,56.6,30.05,North,5,0.0,1.2,88,0.00,CLR,,0.00,0.0,WeatherDisplay:10.37,2013-07-12 06:57:00,
2013-07-12 03:02:00,60.2,56.6,30.05,North,5,0.3,1.2,88,0.00,CLR,,0.00,0.0,WeatherDisplay:10.37,2013-07-12 07:02:00,
2013-07-12 03:07:00,60.2,56.6,30.05,North,5,0.0,0.0,88,0.00,CLR,,0.00,0.0,WeatherDisplay:10.37,2013-07-12 07:07:00,
2013-07-12 03:12:00,60.1,56.5,30.05,NNW,344,0.9,2.3,88,0.00,CLR,,0.00,0.0,WeatherDisplay:10.37,2013-07-12 07:12:00,
2013-07-12 03:17:00,60.2,56.6,30.05,NNW,343,0.4,1.2,88,0.00,CLR,,0.00,0.0,WeatherDisplay:10.37,2013-07-12 07:17:00,
2013-07-12 03:22:00,60.2,56.6,30.05,NNW,333,1.3,2.3,88,0.00,CLR,,0.00,0.0,WeatherDisplay:10.37,2013-07-12 07:22:00,
2013-07-12 03:27:00,60.4,56.8,30.05,NW,308,0.4,1.2,88,0.00,CLR,,0.00,0.0,WeatherDisplay:10.37,2013-07-12 07:27:00,
2013-07-12 03:32:00,60.5,56.6,30.05,NW,321,0.5,1.2,87,0.00,CLR,,0.00,0.0,WeatherDisplay:10.37,2013-07-12 07:32:00,
2013-07-12 03:37:00,60.5,56.6,30.05,NW,321,0.3,1.2,87,0.00,CLR,,0.00,0.0,WeatherDisplay:10.37,2013-07-12 07:37:00,
2013-07-12 03:42:00,60.5,56.6,30.05,NNW,345,0.0,1.2,87,0.00,CLR,,0.00,0.0,WeatherDisplay:10.37,2013-07-12 07:42:00,
2013-07-12 03:47:00,60.6,56.7,30.04,NNW,345,0.3,0.0,87,0.00,CLR,,0.00,0.0,WeatherDisplay:10.37,2013-07-12 07:47:00,
2013-07-12 03:52:00,60.6,56.7,30.05,NNW,345,0.0,0.0,87,0.00,CLR,,0.00,0.0,WeatherDisplay:10.37,2013-07-12 07:52:00,
2013-07-12 03:57:00,60.6,56.7,30.05,NNW,345,0.0,0.0,87,0.00,CLR,,0.00,0.0,WeatherDisplay:10.37,2013-07-12 07:57:00,
2013-07-12 04:02:00,60.5,56.6,30.05,NNW,345,0.2,1.2,87,0.00,CLR,,0.00,0.0,WeatherDisplay:10.37,2013-07-12 08:02:00,
2013-07-12 04:07:00,60.5,56.6,30.05,NNW,345,0.0,0.0,87,0.00,CLR,,0.00,0.0,WeatherDisplay:10.37,2013-07-12 08:07:00,
2013-07-12 04:12:00,60.5,56.6,30.05,NNW,345,0.1,1.2,87,0.00,CLR,,0.00,0.0,WeatherDisplay:10.37,2013-07-12 08:12:00,
2013-07-12 04:17:00,60.3,56.7,30.05,NNW,345,1.0,2.3,88,0.00,CLR,,0.00,0.0,WeatherDisplay:10.37,2013-07-12 08:17:00,
2013-07-12 04:22:00,60.2,56.6,30.05,NNW,345,0.0,1.2,88,0.00,CLR,,0.00,0.0,WeatherDisplay:10.37,2013-07-12 08:22:00,
2013-07-12 04:27:00,60.1,56.8,30.05,NNW,345,0.0,0.0,89,0.00,CLR,,0.00,0.0,WeatherDisplay:10.37,2013-07-12 08:27:00,
2013-07-12 04:32:00,60.0,56.4,30.05,NNW,345,0.0,0.0,88,0.00,CLR,,0.00,0.0,WeatherDisplay:10.37,2013-07-12 08:32:00,
2013-07-12 04:37:00,59.8,56.6,30.06,NNW,345,0.0,0.0,89,0.00,CLR,,0.00,0.0,WeatherDisplay:10.37,2013-07-12 08:37:00,
2013-07-12 04:42:00,59.7,56.5,30.06,NNW,345,0.0,0.0,89,0.00,CLR,,0.00,0.0,WeatherDisplay:10.37,2013-07-12 08:42:00,
2013-07-12 04:47:00,59.5,56.3,30.06,NNW,345,0.0,0.0,89,0.00,CLR,,0.00,0.0,WeatherDisplay:10.37,2013-07-12 08:47:00,
2013-07-12 04:52:00,59.3,56.4,30.06,NNW,345,0.0,0.0,90,0.00,CLR,,0.00,0.0,WeatherDisplay:10.37,2013-07-12 08:52:00,
2013-07-12 04:57:00,59.1,56.2,30.06,NNW,345,0.0,0.0,90,0.00,CLR,,0.00,0.0,WeatherDisplay:10.37,2013-07-12 08:57:00,
2013-07-12 05:02:00,59.0,56.4,30.06,NNW,345,0.0,0.0,91,0.00,CLR,,0.00,0.0,WeatherDisplay:10.37,2013-07-12 09:02:00,
2013-07-12 05:07:00,58.9,56.3,30.06,NNW,345,0.0,0.0,91,0.00,CLR,,0.00,0.0,WeatherDisplay:10.37,2013-07-12 09:07:00,
2013-07-12 05:12:00,58.6,56.0,30.06,NNW,345,0.2,1.2,91,0.00,CLR,,0.00,0.0,WeatherDisplay:10.37,2013-07-12 09:12:00,
2013-07-12 05:17:00,58.6,56.3,30.06,NNW,345,0.7,1.2,92,0.00,CLR,,0.00,0.0,WeatherDisplay:10.37,2013-07-12 09:17:00,
2013-07-12 05:22:00,58.7,56.4,30.06,NNW,338,0.1,1.2,92,0.00,CLR,,0.00,0.0,WeatherDisplay:10.37,2013-07-12 09:22:00,
2013-07-12 05:27:00,58.7,56.4,30.06,NNW,338,0.5,2.3,92,0.00,CLR,,0.00,0.0,WeatherDisplay:10.37,2013-07-12 09:27:00,
2013-07-12 05:32:00,58.7,56.4,30.07,NNW,338,0.0,0.0,92,0.00,CLR,,0.00,0.0,WeatherDisplay:10.37,2013-07-12 09:32:00,
2013-07-12 05:37:00,58.7,56.4,30.07,WNW,284,1.4,3.5,92,0.00,CLR,,0.00,0.0,WeatherDisplay:10.37,2013-07-12 09:37:00,
2013-07-12 05:42:00,58.8,56.5,30.07,NNW,332,1.1,1.2,92,0.00,CLR,,0.00,0.0,WeatherDisplay:10.37,2013-07-12 09:42:00,
2013-07-12 05:47:00,58.9,56.9,30.07,NW,309,1.9,3.5,93,0.00,CLR,,0.00,0.0,WeatherDisplay:10.37,2013-07-12 09:47:00,
2013-07-12 05:52:00,59.0,56.7,30.07,NW,318,1.2,2.3,92,0.00,CLR,,0.00,0.0,WeatherDisplay:10.37,2013-07-12 09:52:00,
2013-07-12 05:57:00,59.1,57.1,30.08,NW,319,0.7,2.3,93,0.00,CLR,,0.00,0.0,WeatherDisplay:10.37,2013-07-12 09:57:00,
2013-07-12 06:02:00,59.1,57.1,30.08,NNW,333,0.7,2.3,93,0.00,CLR,,0.00,0.0,WeatherDisplay:10.37,2013-07-12 10:02:00,
2013-07-12 06:07:00,59.0,57.0,30.07,NW,304,1.1,3.5,93,0.00,CLR,,0.00,0.0,WeatherDisplay:10.37,2013-07-12 10:07:00,
2013-07-12 06:12:00,59.0,57.0,30.07,NNW,334,2.2,3.5,93,0.00,CLR,,0.00,0.0,WeatherDisplay:10.37,2013-07-12 10:12:00,
2013-07-12 06:17:00,59.0,57.0,30.07,WNW,293,2.4,3.5,93,0.00,CLR,,0.00,5.0,WeatherDisplay:10.37,2013-07-12 10:17:00,
2013-07-12 06:22:00,59.1,57.1,30.08,NW,319,0.8,3.5,93,0.00,CLR,,0.00,7.0,WeatherDisplay:10.37,2013-07-12 10:22:00,
2013-07-12 06:27:00,59.1,57.1,30.08,NW,304,0.9,3.5,93,0.00,CLR,,0.00,11.0,WeatherDisplay:10.37,2013-07-12 10:27:00,
2013-07-12 06:32:00,59.1,57.1,30.08,NW,305,2.5,2.5,93,0.00,CLR,,0.00,12.0,WeatherDisplay:10.37,2013-07-12 10:32:00,
2013-07-12 06:37:00,59.1,56.8,30.08,NW,311,0.8,3.5,92,0.00,CLR,,0.00,16.0,WeatherDisplay:10.37,2013-07-12 10:37:00,
2013-07-12 06:38:00,59.1,56.8,30.08,NW,311,0.8,3.5,92,0.00,CLR,,0.00,16.0,WeatherDisplay:10.37,2013-07-12 10:38:00,
2013-07-12 06:43:00,59.2,56.9,30.08,NNW,342,0.3,1.2,92,0.00,CLR,,0.00,19.0,WeatherDisplay:10.37,2013-07-12 10:43:00,
2013-07-12 06:48:00,59.3,57.0,30.08,NW,319,0.3,0.0,92,0.00,CLR,,0.00,21.0,WeatherDisplay:10.37,2013-07-12 10:48:00,
2013-07-12 06:53:00,59.4,57.1,30.08,North,355,1.7,3.5,92,0.00,CLR,,0.00,39.0,WeatherDisplay:10.37,2013-07-12 10:53:00,
2013-07-12 06:58:00,59.6,57.3,30.09,NW,313,1.9,3.5,92,0.00,CLR,,0.00,44.0,WeatherDisplay:10.37,2013-07-12 10:58:00,
2013-07-12 07:03:00,60.0,57.4,30.09,NW,324,1.5,2.3,91,0.00,CLR,,0.00,54.0,WeatherDisplay:10.37,2013-07-12 11:03:00,
2013-07-12 07:08:00,60.4,57.8,30.09,NNW,338,1.8,3.5,91,0.00,CLR,,0.00,74.0,WeatherDisplay:10.37,2013-07-12 11:08:00,
2013-07-12 07:13:00,60.8,57.8,30.09,NNW,327,1.1,2.3,90,0.00,CLR,,0.00,97.0,WeatherDisplay:10.37,2013-07-12 11:13:00,
2013-07-12 07:18:00,61.2,58.2,30.09,North,360,0.9,3.5,90,0.00,CLR,,0.00,118.0,WeatherDisplay:10.37,2013-07-12 11:18:00,
2013-07-12 07:23:00,61.7,58.4,30.09,NW,325,1.2,3.5,89,0.00,CLR,,0.00,135.0,WeatherDisplay:10.37,2013-07-12 11:23:00,
2013-07-12 07:28:00,62.2,58.6,30.09,North,355,2.1,3.5,88,0.00,CLR,,0.00,151.0,WeatherDisplay:10.37,2013-07-12 11:28:00,
2013-07-12 07:33:00,62.7,58.8,30.09,NNW,346,0.9,2.3,87,0.00,CLR,,0.00,165.0,WeatherDisplay:10.37,2013-07-12 11:33:00,
2013-07-12 07:38:00,63.3,58.7,30.10,NNW,333,1.2,3.5,85,0.00,CLR,,0.00,179.0,WeatherDisplay:10.37,2013-07-12 11:38:00,
2013-07-12 07:43:00,63.8,58.9,30.10,North,9,1.9,4.6,84,0.00,CLR,,0.00,197.0,WeatherDisplay:10.37,2013-07-12 11:43:00,
2013-07-12 07:48:00,64.1,58.8,30.10,NW,310,0.9,2.3,83,0.00,CLR,,0.00,213.0,WeatherDisplay:10.37,2013-07-12 11:48:00,
2013-07-12 07:53:00,64.3,59.0,30.10,NNW,330,2.8,4.6,83,0.00,CLR,,0.00,225.0,WeatherDisplay:10.37,2013-07-12 11:53:00,
2013-07-12 07:58:00,64.5,58.9,30.10,WNW,298,3.4,8.1,82,0.00,CLR,,0.00,241.0,WeatherDisplay:10.37,2013-07-12 11:58:00,
2013-07-12 08:03:00,64.8,59.2,30.11,North,350,2.1,4.6,82,0.00,CLR,,0.00,255.0,WeatherDisplay:10.37,2013-07-12 12:03:00,
2013-07-12 08:08:00,65.0,59.7,30.11,NNW,328,1.5,2.3,83,0.00,CLR,,0.00,272.0,WeatherDisplay:10.37,2013-07-12 12:08:00,
2013-07-12 08:13:00,65.2,59.6,30.11,NNW,344,3.5,5.8,82,0.00,CLR,,0.00,287.0,WeatherDisplay:10.37,2013-07-12 12:13:00,
2013-07-12 08:18:00,65.2,59.6,30.11,NNE,14,1.8,3.5,82,0.00,CLR,,0.00,299.0,WeatherDisplay:10.37,2013-07-12 12:18:00,
2013-07-12 08:23:00,65.3,60.0,30.11,NNW,345,2.8,5.8,83,0.00,CLR,,0.00,315.0,WeatherDisplay:10.37,2013-07-12 12:23:00,
2013-07-12 08:28:00,65.7,60.1,30.11,NNW,343,2.1,5.8,82,0.00,CLR,,0.00,330.0,WeatherDisplay:10.37,2013-07-12 12:28:00,
2013-07-12 08:33:00,66.0,60.0,30.11,North,355,5.0,10.4,81,0.00,CLR,,0.00,350.0,WeatherDisplay:10.37,2013-07-12 12:33:00,
2013-07-12 08:38:00,66.2,60.5,30.11,East,79,2.0,4.6,82,0.00,CLR,,0.00,360.0,WeatherDisplay:10.37,2013-07-12 12:38:00,
2013-07-12 08:43:00,66.6,60.9,30.11,NNE,26,1.6,3.5,82,0.00,CLR,,0.00,376.0,WeatherDisplay:10.37,2013-07-12 12:43:00,
2013-07-12 08:48:00,67.0,60.6,30.11,ENE,68,1.7,3.5,80,0.00,CLR,,0.00,394.0,WeatherDisplay:10.37,2013-07-12 12:48:00,
2013-07-12 08:53:00,67.5,61.1,30.11,NE,35,0.7,3.5,80,0.00,CLR,,0.00,408.0,WeatherDisplay:10.37,2013-07-12 12:53:00,
2013-07-12 08:58:00,68.0,60.9,30.11,NW,319,1.8,3.5,78,0.00,CLR,,0.00,422.0,WeatherDisplay:10.37,2013-07-12 12:58:00,
2013-07-12 09:03:00,68.3,61.2,30.11,ENE,57,2.9,5.8,78,0.00,CLR,,0.00,436.0,WeatherDisplay:10.37,2013-07-12 13:03:00,
2013-07-12 09:08:00,68.5,61.4,30.11,SE,136,2.3,6.9,78,0.00,CLR,,0.00,452.0,WeatherDisplay:10.37,2013-07-12 13:08:00,
2013-07-12 09:13:00,68.8,61.3,30.11,NE,42,1.7,3.5,77,0.00,CLR,,0.00,469.0,WeatherDisplay:10.37,2013-07-12 13:13:00,
2013-07-12 09:18:00,69.2,62.0,30.11,NNW,338,1.2,2.3,78,0.00,CLR,,0.00,485.0,WeatherDisplay:10.37,2013-07-12 13:18:00,
2013-07-12 09:23:00,69.7,62.2,30.11,NNW,329,3.0,4.6,77,0.00,CLR,,0.00,499.0,WeatherDisplay:10.37,2013-07-12 13:23:00,
2013-07-12 09:28:00,70.1,61.8,30.11,East,80,2.5,3.5,75,0.00,CLR,,0.00,517.0,WeatherDisplay:10.37,2013-07-12 13:28:00,
2013-07-12 09:33:00,70.4,61.7,30.11,ENE,57,3.6,5.8,74,0.00,CLR,,0.00,529.0,WeatherDisplay:10.37,2013-07-12 13:33:00,
2013-07-12 09:38:00,70.6,61.9,30.11,NW,310,4.6,9.2,74,0.00,CLR,,0.00,548.0,WeatherDisplay:10.37,2013-07-12 13:38:00,
2013-07-12 09:43:00,70.5,62.2,30.11,WNW,296,3.4,5.0,75,0.00,CLR,,0.00,563.0,WeatherDisplay:10.37,2013-07-12 13:43:00,
2013-07-12 09:48:00,70.2,61.9,30.11,North,355,4.8,5.8,75,0.00,CLR,,0.00,617.0,WeatherDisplay:10.37,2013-07-12 13:48:00,
2013-07-12 09:53:00,70.2,61.9,30.11,North,360,3.4,10.4,75,0.00,CLR,,0.00,592.0,WeatherDisplay:10.37,2013-07-12 13:53:00,
2013-07-12 09:58:00,70.5,62.9,30.10,NW,310,2.0,8.0,77,0.00,CLR,,0.00,684.0,WeatherDisplay:10.37,2013-07-12 13:58:00,
2013-07-12 10:03:00,70.8,62.5,30.10,ENE,67,4.2,6.9,75,0.00,SCT,,0.00,640.0,WeatherDisplay:10.37,2013-07-12 14:03:00,
2013-07-12 10:08:00,71.2,62.9,30.10,NE,43,3.3,6.9,75,0.00,SCT,,0.00,633.0,WeatherDisplay:10.37,2013-07-12 14:08:00,
2013-07-12 10:13:00,71.6,62.9,30.10,NW,310,2.1,3.5,74,0.00,SCT,,0.00,652.0,WeatherDisplay:10.37,2013-07-12 14:13:00,
2013-07-12 10:18:00,71.6,62.5,30.10,NNW,327,4.1,10.4,73,0.00,SCT,,0.00,287.0,WeatherDisplay:10.37,2013-07-12 14:18:00,
2013-07-12 10:23:00,71.2,62.9,30.11,NNW,334,4.0,8.1,75,0.00,SCT,,0.00,338.0,WeatherDisplay:10.37,2013-07-12 14:23:00,
2013-07-12 10:28:00,71.5,63.5,30.11,WNW,300,2.7,3.5,76,0.00,SCT,,0.00,851.0,WeatherDisplay:10.37,2013-07-12 14:28:00,
2013-07-12 10:33:00,72.4,63.6,30.10,WNW,301,3.1,4.6,74,0.00,SCT,,0.00,858.0,WeatherDisplay:10.37,2013-07-12 14:33:00,
2013-07-12 10:38:00,72.7,63.5,30.11,NE,41,2.5,3.5,73,0.00,SCT,,0.00,369.0,WeatherDisplay:10.37,2013-07-12 14:38:00,
2013-07-12 10:43:00,72.7,63.1,30.11,NE,44,2.1,5.8,72,0.00,SCT,,0.00,264.0,WeatherDisplay:10.37,2013-07-12 14:43:00,
2013-07-12 10:48:00,72.6,63.4,30.11,NNW,338,4.8,5.8,73,0.00,SCT,,0.00,796.0,WeatherDisplay:10.37,2013-07-12 14:48:00,
2013-07-12 10:53:00,72.7,63.9,30.11,NNE,20,3.2,3.5,74,0.00,SCT,,0.00,292.0,WeatherDisplay:10.37,2013-07-12 14:53:00,
2013-07-12 10:58:00,73.1,62.7,30.11,NNW,333,4.7,8.1,70,0.00,SCT,,0.00,355.0,WeatherDisplay:10.37,2013-07-12 14:58:00,
2013-07-12 11:03:00,73.0,63.0,30.11,NNW,342,3.2,3.5,71,0.00,BKN,,0.00,933.0,WeatherDisplay:10.37,2013-07-12 15:03:00,
2013-07-12 11:08:00,73.6,63.2,30.11,NNW,340,3.8,3.8,70,0.00,BKN,,0.00,895.0,WeatherDisplay:10.37,2013-07-12 15:08:00,
2013-07-12 11:13:00,73.5,63.1,30.11,North,11,2.0,3.5,70,0.00,BKN,,0.00,257.0,WeatherDisplay:10.37,2013-07-12 15:13:00,
2013-07-12 11:18:00,73.5,63.5,30.11,West,277,3.3,5.8,71,0.00,BKN,,0.00,211.0,WeatherDisplay:10.37,2013-07-12 15:18:00,
2013-07-12 11:24:00,73.6,63.6,30.10,NNW,332,4.9,6.9,71,0.00,BKN,,0.00,914.0,WeatherDisplay:10.37,2013-07-12 15:24:00,
2013-07-12 11:29:00,73.9,63.9,30.11,NNW,344,3.9,8.1,71,0.00,BKN,,0.00,953.0,WeatherDisplay:10.37,2013-07-12 15:29:00,
2013-07-12 11:34:00,74.2,63.4,30.10,West,281,2.8,3.5,69,0.00,BKN,,0.00,359.0,WeatherDisplay:10.37,2013-07-12 15:34:00,
2013-07-12 11:39:00,74.1,63.3,30.10,NNE,32,2.1,4.6,69,0.00,BKN,,0.00,185.0,WeatherDisplay:10.37,2013-07-12 15:39:00,
2013-07-12 11:44:00,73.8,62.6,30.11,NW,312,3.0,8.1,68,0.00,BKN,,0.00,248.0,WeatherDisplay:10.37,2013-07-12 15:44:00,
2013-07-12 11:49:00,73.6,63.2,30.10,NW,320,2.4,4.6,70,0.00,BKN,,0.00,1025.0,WeatherDisplay:10.37,2013-07-12 15:49:00,
2013-07-12 11:54:00,73.5,62.7,30.10,North,10,3.3,8.1,69,0.00,BKN,,0.00,221.0,WeatherDisplay:10.37,2013-07-12 15:54:00,
2013-07-12 11:59:00,73.5,63.1,30.10,ENE,66,1.3,3.5,70,0.00,BKN,,0.00,937.0,WeatherDisplay:10.37,2013-07-12 15:59:00,
2013-07-12 12:04:00,74.6,62.5,30.10,NNW,338,3.4,8.1,66,0.00,BKN,,0.00,981.0,WeatherDisplay:10.37,2013-07-12 16:04:00,
2013-07-12 12:09:00,75.3,62.3,30.10,NNW,330,2.4,3.5,64,0.00,BKN,,0.00,243.0,WeatherDisplay:10.37,2013-07-12 16:09:00,
2013-07-12 12:14:00,75.6,61.2,30.10,NE,49,5.4,9.2,61,0.00,BKN,,0.00,965.0,WeatherDisplay:10.37,2013-07-12 16:14:00,
2013-07-12 12:19:00,76.0,62.5,30.10,NW,306,3.3,5.8,63,0.00,BKN,,0.00,963.0,WeatherDisplay:10.37,2013-07-12 16:19:00,
2013-07-12 12:24:00,76.3,61.9,30.10,North,355,2.7,6.9,61,0.00,BKN,,0.00,633.0,WeatherDisplay:10.37,2013-07-12 16:24:00,
2013-07-12 12:29:00,76.6,61.2,30.10,North,5,3.6,8.1,59,0.00,BKN,,0.00,1034.0,WeatherDisplay:10.37,2013-07-12 16:29:00,
2013-07-12 12:34:00,76.7,61.8,30.10,NNE,18,2.9,8.1,60,0.00,BKN,,0.00,183.0,WeatherDisplay:10.37,2013-07-12 16:34:00,
2013-07-12 12:39:00,76.5,61.1,30.10,SSW,195,1.7,3.5,59,0.00,BKN,,0.00,1023.0,WeatherDisplay:10.37,2013-07-12 16:39:00,
2013-07-12 12:44:00,76.7,60.3,30.10,NNW,342,2.1,8.1,57,0.00,BKN,,0.00,1074.0,WeatherDisplay:10.37,2013-07-12 16:44:00,
2013-07-12 12:49:00,77.3,60.4,30.09,NNW,328,2.1,3.5,56,0.00,BKN,,0.00,1067.0,WeatherDisplay:10.37,2013-07-12 16:49:00,
2013-07-12 12:54:00,78.0,60.0,30.09,NNE,19,2.1,8.1,54,0.00,BKN,,0.00,1058.0,WeatherDisplay:10.37,2013-07-12 16:54:00,
2013-07-12 12:59:00,78.2,59.7,30.09,SE,126,3.0,4.6,53,0.00,BKN,,0.00,346.0,WeatherDisplay:10.37,2013-07-12 16:59:00,
2013-07-12 13:04:00,77.7,58.7,30.09,East,86,2.5,3.5,52,0.00,BKN,,0.00,1090.0,WeatherDisplay:10.37,2013-07-12 17:04:00,
2013-07-12 13:09:00,78.2,59.1,30.09,East,99,4.7,6.0,52,0.00,BKN,,0.00,998.0,WeatherDisplay:10.37,2013-07-12 17:09:00,
2013-07-12 13:14:00,78.0,59.5,30.09,North,355,2.7,5.8,53,0.00,BKN,,0.00,1049.0,WeatherDisplay:10.37,2013-07-12 17:14:00,
2013-07-12 13:19:00,78.0,59.5,30.09,North,5,3.4,6.9,53,0.00,BKN,,0.00,946.0,WeatherDisplay:10.37,2013-07-12 17:19:00,
2013-07-12 13:24:00,77.7,59.7,30.09,NE,40,1.5,6.9,54,0.00,BKN,,0.00,318.0,WeatherDisplay:10.37,2013-07-12 17:24:00,
2013-07-12 13:29:00,78.0,60.0,30.08,ENE,77,2.8,6.9,54,0.00,BKN,,0.00,1049.0,WeatherDisplay:10.37,2013-07-12 17:29:00,
2013-07-12 13:34:00,78.7,60.1,30.08,NNE,32,3.0,5.8,53,0.00,BKN,,0.00,1253.0,WeatherDisplay:10.37,2013-07-12 17:34:00,
2013-07-12 13:39:00,79.0,60.4,30.08,East,90,2.4,6.9,53,0.00,BKN,,0.00,343.0,WeatherDisplay:10.37,2013-07-12 17:39:00,
2013-07-12 13:45:00,79.1,60.5,30.08,NNW,337,3.4,5.8,53,0.00,BKN,,0.00,353.0,WeatherDisplay:10.37,2013-07-12 17:45:00,
2013-07-12 13:50:00,79.3,61.2,30.08,NW,313,1.1,2.3,54,0.00,BKN,,0.00,967.0,WeatherDisplay:10.37,2013-07-12 17:50:00,
2013-07-12 13:56:00,79.2,60.1,30.08,ENE,57,5.5,9.2,52,0.00,BKN,,0.00,1021.0,WeatherDisplay:10.37,2013-07-12 17:56:00,
2013-07-12 14:01:00,78.8,61.3,30.08,NE,43,4.2,8.1,55,0.00,BKN,,0.00,1030.0,WeatherDisplay:10.37,2013-07-12 18:01:00,
2013-07-12 14:06:00,79.6,61.5,30.08,NNE,15,1.9,5.8,54,0.00,BKN,,0.00,1053.0,WeatherDisplay:10.37,2013-07-12 18:06:00,
2013-07-12 14:11:00,79.7,61.6,30.07,ENE,71,1.6,4.6,54,0.00,BKN,,0.00,1104.0,WeatherDisplay:10.37,2013-07-12 18:11:00,
2013-07-12 14:17:00,79.9,60.7,30.08,NE,34,2.2,5.8,52,0.00,BKN,,0.00,417.0,WeatherDisplay:10.37,2013-07-12 18:17:00,
2013-07-12 14:22:00,79.4,60.8,30.08,SW,236,4.2,5.8,53,0.00,BKN,,0.00,202.0,WeatherDisplay:10.37,2013-07-12 18:22:00,
2013-07-12 14:28:00,78.6,61.1,30.08,NNW,327,2.1,6.9,55,0.00,BKN,,0.00,281.0,WeatherDisplay:10.37,2013-07-12 18:28:00,
2013-07-12 14:33:00,79.2,62.7,30.07,ENE,57,3.6,5.0,57,0.00,BKN,,0.00,944.0,WeatherDisplay:10.37,2013-07-12 18:33:00,
2013-07-12 14:38:00,79.8,62.7,30.07,ENE,65,3.4,3.5,56,0.00,BKN,,0.00,977.0,WeatherDisplay:10.37,2013-07-12 18:38:00,
2013-07-12 14:43:00,80.1,63.0,30.07,North,355,2.9,6.9,56,0.00,BKN,,0.00,1025.0,WeatherDisplay:10.37,2013-07-12 18:43:00,
2013-07-12 14:48:00,80.5,62.3,30.06,NNW,336,4.2,9.2,54,0.00,BKN,,0.00,995.0,WeatherDisplay:10.37,2013-07-12 18:48:00,
2013-07-12 14:53:00,80.6,61.9,30.06,East,86,4.4,8.0,53,0.00,BKN,,0.00,1046.0,WeatherDisplay:10.37,2013-07-12 18:53:00,
2013-07-12 14:59:00,80.7,60.9,30.07,East,80,4.8,9.2,51,0.00,BKN,,0.00,738.0,WeatherDisplay:10.37,2013-07-12 18:59:00,
2013-07-12 15:04:00,80.6,60.8,30.07,ESE,104,4.7,9.2,51,0.00,SCT,,0.00,738.0,WeatherDisplay:10.37,2013-07-12 19:04:00,
2013-07-12 15:10:00,80.4,60.1,30.07,ESE,105,3.1,4.6,50,0.00,SCT,,0.00,933.0,WeatherDisplay:10.37,2013-07-12 19:10:00,
2013-07-12 15:15:00,80.4,62.2,30.07,North,355,1.3,6.9,54,0.00,SCT,,0.00,251.0,WeatherDisplay:10.37,2013-07-12 19:15:00,
2013-07-12 15:20:00,80.1,60.9,30.06,SE,126,4.2,8.1,52,0.00,SCT,,0.00,385.0,WeatherDisplay:10.37,2013-07-12 19:20:00,
2013-07-12 15:26:00,80.2,61.0,30.06,East,95,3.8,10.4,52,0.00,SCT,,0.00,387.0,WeatherDisplay:10.37,2013-07-12 19:26:00,
2013-07-12 15:31:00,80.0,60.8,30.06,NNW,348,1.9,3.5,52,0.00,SCT,,0.00,357.0,WeatherDisplay:10.37,2013-07-12 19:31:00,
2013-07-12 15:36:00,79.7,60.5,30.07,NE,36,7.2,10.4,52,0.00,SCT,,0.00,299.0,WeatherDisplay:10.37,2013-07-12 19:36:00,
2013-07-12 15:41:00,79.1,61.5,30.07,ENE,74,1.9,8.1,55,0.00,SCT,,0.00,357.0,WeatherDisplay:10.37,2013-07-12 19:41:00,
2013-07-12 15:46:00,79.0,61.5,30.07,SSE,150,2.0,10.4,55,0.00,SCT,,0.00,443.0,WeatherDisplay:10.37,2013-07-12 19:46:00,
2013-07-12 15:53:00,79.4,61.3,30.07,East,86,5.3,8.1,54,0.00,SCT,,0.00,853.0,WeatherDisplay:10.37,2013-07-12 19:53:00,
2013-07-12 15:58:00,80.0,62.4,30.07,East,79,2.9,9.2,55,0.00,SCT,,0.00,874.0,WeatherDisplay:10.37,2013-07-12 19:58:00,
2013-07-12 16:03:00,80.6,61.9,30.07,NNE,28,3.9,11.5,53,0.00,SCT,,0.00,951.0,WeatherDisplay:10.37,2013-07-12 20:03:00,
2013-07-12 16:09:00,80.1,60.3,30.07,ENE,57,2.6,4.6,51,0.00,SCT,,0.00,214.0,WeatherDisplay:10.37,2013-07-12 20:09:00,
2013-07-12 16:14:00,80.0,61.3,30.06,ENE,58,2.6,3.5,53,0.00,SCT,,0.00,837.0,WeatherDisplay:10.37,2013-07-12 20:14:00,
2013-07-12 16:19:00,80.4,59.5,30.07,NE,49,4.1,9.2,49,0.00,SCT,,0.00,809.0,WeatherDisplay:10.37,2013-07-12 20:19:00,
2013-07-12 16:24:00,80.2,59.9,30.07,ENE,67,4.7,6.9,50,0.00,SCT,,0.00,795.0,WeatherDisplay:10.37,2013-07-12 20:24:00,
2013-07-12 16:29:00,80.6,59.7,30.07,ENE,71,6.1,11.5,49,0.00,SCT,,0.00,853.0,WeatherDisplay:10.37,2013-07-12 20:29:00,
2013-07-12 16:34:00,80.8,60.4,30.06,East,92,2.3,6.9,50,0.00,SCT,,0.00,860.0,WeatherDisplay:10.37,2013-07-12 20:34:00,
2013-07-12 16:40:00,80.8,59.9,30.07,East,101,5.2,10.4,49,0.00,SCT,,0.00,684.0,WeatherDisplay:10.37,2013-07-12 20:40:00,
2013-07-12 16:45:00,80.2,59.3,30.07,NE,43,3.9,6.9,49,0.00,SCT,,0.00,313.0,WeatherDisplay:10.37,2013-07-12 20:45:00,
2013-07-12 16:50:00,80.1,59.8,30.06,North,350,2.6,4.6,50,0.00,SCT,,0.00,717.0,WeatherDisplay:10.37,2013-07-12 20:50:00,
2013-07-12 16:56:00,80.3,59.4,30.06,ENE,78,4.0,11.5,49,0.00,SCT,,0.00,842.0,WeatherDisplay:10.37,2013-07-12 20:56:00,
2013-07-12 17:01:00,79.8,59.5,30.06,NE,47,2.2,6.9,50,0.00,FEW,,0.00,357.0,WeatherDisplay:10.37,2013-07-12 21:01:00,
2013-07-12 17:06:00,79.6,58.8,30.07,ENE,57,5.0,10.4,49,0.00,FEW,,0.00,455.0,WeatherDisplay:10.37,2013-07-12 21:06:00,
2013-07-12 17:11:00,79.6,58.8,30.06,NNE,26,6.2,6.9,49,0.00,FEW,,0.00,598.0,WeatherDisplay:10.37,2013-07-12 21:11:00,
2013-07-12 17:16:00,80.1,59.2,30.06,SE,128,3.9,5.8,49,0.00,FEW,,0.00,615.0,WeatherDisplay:10.37,2013-07-12 21:16:00,
2013-07-12 17:22:00,80.7,59.8,30.06,ENE,66,3.0,5.0,49,0.00,FEW,,0.00,650.0,WeatherDisplay:10.37,2013-07-12 21:22:00,
2013-07-12 17:27:00,81.0,59.5,30.06,NNW,340,4.9,10.4,48,0.00,FEW,,0.00,599.0,WeatherDisplay:10.37,2013-07-12 21:27:00,
2013-07-12 17:32:00,80.8,59.3,30.07,ESE,111,5.1,7.0,48,0.00,FEW,,0.00,564.0,WeatherDisplay:10.37,2013-07-12 21:32:00,
2013-07-12 17:37:00,80.5,58.4,30.06,NE,48,3.4,6.9,47,0.00,FEW,,0.00,585.0,WeatherDisplay:10.37,2013-07-12 21:37:00,
2013-07-12 17:42:00,80.5,59.0,30.06,ESE,104,4.3,11.5,48,0.00,FEW,,0.00,545.0,WeatherDisplay:10.37,2013-07-12 21:42:00,
2013-07-12 17:47:00,80.6,60.2,30.06,East,88,2.3,4.6,50,0.00,FEW,,0.00,462.0,WeatherDisplay:10.37,2013-07-12 21:47:00,
2013-07-12 17:52:00,80.5,59.6,30.06,ENE,61,6.1,11.5,49,0.00,FEW,,0.00,454.0,WeatherDisplay:10.37,2013-07-12 21:52:00,
2013-07-12 17:57:00,80.2,59.9,30.06,NE,44,4.0,11.5,50,0.00,FEW,,0.00,487.0,WeatherDisplay:10.37,2013-07-12 21:57:00,
2013-07-12 18:04:00,80.4,60.1,30.06,NE,39,3.0,6.9,50,0.00,CLR,,0.00,503.0,WeatherDisplay:10.37,2013-07-12 22:04:00,
2013-07-12 18:09:00,81.0,60.6,30.06,NE,49,2.9,4.0,50,0.00,CLR,,0.00,501.0,WeatherDisplay:10.37,2013-07-12 22:09:00,
2013-07-12 18:15:00,81.2,59.6,30.05,ESE,112,5.2,9.2,48,0.00,CLR,,0.00,482.0,WeatherDisplay:10.37,2013-07-12 22:15:00,
2013-07-12 18:21:00,80.8,59.3,30.06,NE,36,5.0,9.2,48,0.00,CLR,,0.00,415.0,WeatherDisplay:10.37,2013-07-12 22:21:00,
2013-07-12 18:26:00,80.6,60.2,30.06,NE,40,2.8,8.1,50,0.00,CLR,,0.00,388.0,WeatherDisplay:10.37,2013-07-12 22:26:00,
2013-07-12 18:31:00,80.4,59.5,30.06,East,99,4.0,5.8,49,0.00,CLR,,0.00,374.0,WeatherDisplay:10.37,2013-07-12 22:31:00,
2013-07-12 18:37:00,80.2,59.3,30.06,NNW,338,3.7,9.2,49,0.00,CLR,,0.00,353.0,WeatherDisplay:10.37,2013-07-12 22:37:00,
2013-07-12 18:42:00,80.2,59.9,30.06,East,89,5.1,6.9,50,0.00,CLR,,0.00,348.0,WeatherDisplay:10.37,2013-07-12 22:42:00,
2013-07-12 18:48:00,80.0,59.7,30.06,East,85,1.2,3.5,50,0.00,CLR,,0.00,373.0,WeatherDisplay:10.37,2013-07-12 22:48:00,
2013-07-12 18:53:00,80.2,59.9,30.06,NNW,347,5.1,11.5,50,0.00,CLR,,0.00,424.0,WeatherDisplay:10.37,2013-07-12 22:53:00,
2013-07-12 18:58:00,80.4,60.6,30.06,ENE,78,2.4,3.5,51,0.00,CLR,,0.00,461.0,WeatherDisplay:10.37,2013-07-12 22:58:00,
2013-07-12 19:04:00,80.6,60.2,30.07,ENE,61,3.3,9.2,50,0.00,FEW,,0.00,383.0,WeatherDisplay:10.37,2013-07-12 23:04:00,
2013-07-12 19:09:00,80.2,59.3,30.07,East,92,5.3,11.5,49,0.00,FEW,,0.00,230.0,WeatherDisplay:10.37,2013-07-12 23:09:00,
2013-07-12 19:14:00,79.3,59.6,30.07,East,90,5.7,11.5,51,0.00,FEW,,0.00,171.0,WeatherDisplay:10.37,2013-07-12 23:14:00,
2013-07-12 19:19:00,78.9,59.8,30.07,NE,45,1.4,4.6,52,0.00,FEW,,0.00,195.0,WeatherDisplay:10.37,2013-07-12 23:19:00,
2013-07-12 19:24:00,78.7,59.6,30.08,ENE,67,5.0,8.1,52,0.00,FEW,,0.00,120.0,WeatherDisplay:10.37,2013-07-12 23:24:00,
2013-07-12 19:29:00,78.5,59.9,30.08,North,5,1.9,3.5,53,0.00,FEW,,0.00,114.0,WeatherDisplay:10.37,2013-07-12 23:29:00,
2013-07-12 19:34:00,78.4,60.4,30.08,East,86,4.9,8.1,54,0.00,FEW,,0.00,211.0,WeatherDisplay:10.37,2013-07-12 23:34:00,
2013-07-12 19:40:00,78.4,60.9,30.08,East,82,2.8,4.6,55,0.00,FEW,,0.00,179.0,WeatherDisplay:10.37,2013-07-12 23:40:00,
2013-07-12 19:46:00,78.3,58.7,30.08,NE,49,3.1,5.8,51,0.00,FEW,,0.00,155.0,WeatherDisplay:10.37,2013-07-12 23:46:00,
2013-07-12 19:51:00,78.4,58.8,30.07,ENE,63,2.6,5.8,51,0.00,FEW,,0.00,134.0,WeatherDisplay:10.37,2013-07-12 23:51:00,
2013-07-12 19:56:00,78.2,58.6,30.07,East,87,4.1,6.9,51,0.00,FEW,,0.00,102.0,WeatherDisplay:10.37,2013-07-12 23:56:00,
2013-07-12 20:01:00,77.8,59.3,30.08,ENE,78,3.1,5.8,53,0.00,OVC,,0.00,62.0,WeatherDisplay:10.37,2013-07-13 00:01:00,
2013-07-12 20:07:00,77.2,58.2,30.08,ESE,118,1.9,5.8,52,0.00,OVC,,0.00,56.0,WeatherDisplay:10.37,2013-07-13 00:07:00,
2013-07-12 20:13:00,76.7,57.2,30.08,ENE,67,3.2,9.2,51,0.00,OVC,,0.00,42.0,WeatherDisplay:10.37,2013-07-13 00:13:00,
2013-07-12 20:18:00,76.4,57.5,30.08,ENE,76,6.3,9.2,52,0.00,OVC,,0.00,30.0,WeatherDisplay:10.37,2013-07-13 00:18:00,
2013-07-12 20:24:00,76.2,57.8,30.08,NE,53,1.5,4.6,53,0.00,OVC,,0.00,25.0,WeatherDisplay:10.37,2013-07-13 00:24:00,
2013-07-12 20:30:00,76.0,57.6,30.08,ESE,103,3.1,6.9,53,0.00,OVC,,0.00,21.0,WeatherDisplay:10.37,2013-07-13 00:30:00,
2013-07-12 20:35:00,75.9,57.5,30.08,ENE,65,3.4,5.8,53,0.00,OVC,,0.00,25.0,WeatherDisplay:10.37,2013-07-13 00:35:00,
2013-07-12 20:40:00,75.8,58.0,30.08,ENE,63,0.5,2.3,54,0.00,OVC,,0.00,18.0,WeatherDisplay:10.37,2013-07-13 00:40:00,
2013-07-12 20:46:00,75.7,57.9,30.08,East,88,3.2,3.5,54,0.00,OVC,,0.00,12.0,WeatherDisplay:10.37,2013-07-13 00:46:00,
2013-07-12 20:51:00,75.5,58.2,30.08,East,80,1.3,3.5,55,0.00,OVC,,0.00,11.0,WeatherDisplay:10.37,2013-07-13 00:51:00,
2013-07-12 20:56:00,75.2,58.4,30.08,ENE,73,1.5,3.5,56,0.00,OVC,,0.00,7.0,WeatherDisplay:10.37,2013-07-13 00:56:00,
2013-07-12 21:01:00,75.0,58.2,30.08,ENE,59,2.4,4.6,56,0.00,CLR,,0.00,9.0,WeatherDisplay:10.37,2013-07-13 01:01:00,
2013-07-12 21:07:00,74.9,58.6,30.08,NNE,20,1.0,3.5,57,0.00,CLR,,0.00,0.0,WeatherDisplay:10.37,2013-07-13 01:07:00,
2013-07-12 21:12:00,74.7,58.5,30.09,ENE,74,0.3,3.5,57,0.00,CLR,,0.00,0.0,WeatherDisplay:10.37,2013-07-13 01:12:00,
2013-07-12 21:17:00,74.6,58.8,30.08,East,84,0.5,3.5,58,0.00,CLR,,0.00,0.0,WeatherDisplay:10.37,2013-07-13 01:17:00,
2013-07-12 21:22:00,74.5,58.8,30.09,NE,55,1.4,3.0,58,0.00,CLR,,0.00,0.0,WeatherDisplay:10.37,2013-07-13 01:22:00,
2013-07-12 21:28:00,74.4,59.1,30.09,ENE,78,0.8,2.3,59,0.00,CLR,,0.00,0.0,WeatherDisplay:10.37,2013-07-13 01:28:00,
2013-07-12 21:33:00,74.3,59.0,30.09,East,80,1.1,3.5,59,0.00,CLR,,0.00,0.0,WeatherDisplay:10.37,2013-07-13 01:33:00,
2013-07-12 21:39:00,74.2,58.9,30.09,ENE,75,0.8,2.3,59,0.00,CLR,,0.00,0.0,WeatherDisplay:10.37,2013-07-13 01:39:00,
2013-07-12 21:44:00,74.1,59.3,30.09,NNE,28,1.2,2.3,60,0.00,CLR,,0.00,0.0,WeatherDisplay:10.37,2013-07-13 01:44:00,
2013-07-12 21:49:00,74.0,59.7,30.09,NNE,13,1.5,3.5,61,0.00,CLR,,0.00,0.0,WeatherDisplay:10.37,2013-07-13 01:49:00,
2013-07-12 21:54:00,73.8,60.0,30.09,NE,44,0.3,2.3,62,0.00,CLR,,0.00,0.0,WeatherDisplay:10.37,2013-07-13 01:54:00,
2013-07-12 21:59:00,73.7,60.3,30.10,NE,53,0.2,2.3,63,0.00,CLR,,0.00,0.0,WeatherDisplay:10.37,2013-07-13 01:59:00,
2013-07-12 22:04:00,73.6,60.2,30.10,NE,53,0.2,0.0,63,0.00,OVC,,0.00,0.0,WeatherDisplay:10.37,2013-07-13 02:04:00,
2013-07-12 22:10:00,73.5,60.6,30.10,NE,53,0.4,2.3,64,0.00,OVC,,0.00,0.0,WeatherDisplay:10.37,2013-07-13 02:10:00,
2013-07-12 22:15:00,73.3,60.8,30.10,ENE,59,0.3,0.0,65,0.00,OVC,,0.00,0.0,WeatherDisplay:10.37,2013-07-13 02:15:00,
2013-07-12 22:20:00,73.1,61.1,30.10,ENE,59,0.2,1.2,66,0.00,OVC,,0.00,0.0,WeatherDisplay:10.37,2013-07-13 02:20:00,
2013-07-12 22:25:00,72.9,60.9,30.11,NE,55,0.8,2.3,66,0.00,OVC,,0.00,0.0,WeatherDisplay:10.37,2013-07-13 02:25:00,
2013-07-12 22:30:00,72.7,61.1,30.11,NE,55,0.4,1.2,67,0.00,OVC,,0.00,0.0,WeatherDisplay:10.37,2013-07-13 02:30:00,
2013-07-12 22:36:00,72.5,61.3,30.10,North,5,0.8,2.3,68,0.00,OVC,,0.00,0.0,WeatherDisplay:10.37,2013-07-13 02:36:00,
2013-07-12 22:41:00,72.4,61.7,30.10,North,5,0.0,2.3,69,0.00,OVC,,0.00,0.0,WeatherDisplay:10.37,2013-07-13 02:41:00,
2013-07-12 22:46:00,72.2,61.5,30.11,North,5,0.0,0.0,69,0.00,OVC,,0.00,0.0,WeatherDisplay:10.37,2013-07-13 02:46:00,
2013-07-12 22:51:00,72.1,61.8,30.10,North,10,0.7,1.2,70,0.00,OVC,,0.00,0.0,WeatherDisplay:10.37,2013-07-13 02:51:00,
2013-07-12 22:56:00,72.0,62.1,30.10,North,10,0.0,0.0,71,0.00,OVC,,0.00,0.0,WeatherDisplay:10.37,2013-07-13 02:56:00,
2013-07-12 23:01:00,71.8,61.9,30.11,North,10,0.0,1.2,71,0.00,FEW,,0.00,0.0,WeatherDisplay:10.37,2013-07-13 03:01:00,
2013-07-12 23:07:00,71.6,62.1,30.11,North,10,0.0,0.0,72,0.00,FEW,,0.00,0.0,WeatherDisplay:10.37,2013-07-13 03:07:00,
2013-07-12 23:12:00,71.4,62.3,30.11,North,10,0.1,1.2,73,0.00,FEW,,0.00,0.0,WeatherDisplay:10.37,2013-07-13 03:12:00,
2013-07-12 23:17:00,71.2,62.5,30.10,North,10,0.0,1.2,74,0.00,FEW,,0.00,0.0,WeatherDisplay:10.37,2013-07-13 03:17:00,
2013-07-12 23:22:00,71.0,62.7,30.11,North,10,0.1,1.2,75,0.00,FEW,,0.00,0.0,WeatherDisplay:10.37,2013-07-13 03:22:00,
2013-07-12 23:27:00,70.8,62.9,30.10,North,9,0.2,1.2,76,0.00,FEW,,0.00,0.0,WeatherDisplay:10.37,2013-07-13 03:27:00,
2013-07-12 23:32:00,70.6,62.7,30.10,North,360,0.1,1.2,76,0.00,FEW,,0.00,0.0,WeatherDisplay:10.37,2013-07-13 03:32:00,
2013-07-12 23:37:00,70.5,62.9,30.11,NNE,18,0.1,2.3,77,0.00,FEW,,0.00,0.0,WeatherDisplay:10.37,2013-07-13 03:37:00,
2013-07-12 23:42:00,70.4,62.8,30.10,North,355,0.3,1.2,77,0.00,FEW,,0.00,0.0,WeatherDisplay:10.37,2013-07-13 03:42:00,
2013-07-12 23:47:00,70.1,62.9,30.10,North,355,0.6,0.0,78,0.00,FEW,,0.00,0.0,WeatherDisplay:10.37,2013-07-13 03:47:00,
2013-07-12 23:53:00,70.0,63.2,30.11,NNE,13,0.7,2.3,79,0.00,FEW,,0.00,0.0,WeatherDisplay:10.37,2013-07-13 03:53:00,
2013-07-12 23:58:00,69.8,63.0,30.10,East,80,0.0,0.0,79,0.00,FEW,,0.00,0.0,WeatherDisplay:10.37,2013-07-13 03:58:00,